一网星座-0510星 (ONEWEB-0510 )

导读

ONEWEB-0510是一颗由英国发射的低轨道通信卫星,属于OneWeb星座组网卫星,于2022年10月22日发射升空。该卫星主要服务于全球宽带互联网接入,助力OneWeb实现全球卫星通信覆盖,为偏远地区、海上以及航空等场景提供高速网络连接服务,推动全球网络基础设施的完善与普及。

基本信息
目录编号:
54128
目录名称:
ONEWEB-0510
国际标识:
2022-138R
轨道中心:
EARTH
卫星名称:
一网星座-0510星
卫星全名:
一网星座-0510星 (ONEWEB-0510 )
卫星状态:
在轨 (已飞行1331 天)
发射日期:
2022-10-22 UTC
国别 :
英国 (GB)
星等 :
--
轨道信息
数据来源 国际轨道数据 AOE轨道数据
星历时间 2026-06-14T03:10:10+0800
16小时前
查看轨道信息
2026-06-10T05:00:00+0800
4天前
查看轨道信息
半长轴 7559.91km 7559.901km
偏心率 0.0002419 0.0002275
轨道倾角 87.919° 87.919°
近地点辐角 96.792° 87.675°
升交点赤经 275.111° 275.893°
平近点角 263.349° 346.740°
近地点 1179.944km 1180.044km
远地点 1183.602km 1183.484km
周期 109.027分钟 109.027分钟
每日圈数 13.20772 13.207745
详细信息
平衡模式:
三轴稳定
覆盖范围:
全球
运营商:
一网卫星公司
运营商所在国:
英国
制造商(研发单位):
一网卫星公司
制造商所在国:
英国
使用方式:
暂无
卫星简介
OneWeb卫星网络由648颗重约125公斤的微型卫星组成,运行在1200公里的轨道上。 每颗卫星都能够提供至少每秒8千兆位的吞吐量,以使用其高吞吐量的Ku频段有效载荷为家庭和移动平台提供互联网接入。该卫星仍在工作。
2D轨道图
3D轨道图
轨道高度分析图
轨道倾角分析图
轨道综合分析图
查看轨道综合分析图